Year,Month,Day,Hour,Minute,Value (Times are PST for temperature in C)
2017,05,26,00,00,15.80
2017,05,26,00,01,15.80
2017,05,26,00,02,15.70
2017,05,26,00,03,15.70
2017,05,26,00,04,15.70
2017,05,26,00,05,15.60
2017,05,26,00,06,15.60
2017,05,26,00,07,15.60
2017,05,26,00,08,15.60
2017,05,26,00,09,15.60
2017,05,26,00,10,15.60
2017,05,26,00,11,15.60
2017,05,26,00,12,15.70
2017,05,26,00,13,15.70
2017,05,26,00,14,15.70
2017,05,26,00,15,15.80
2017,05,26,00,16,15.80
2017,05,26,00,17,15.90
2017,05,26,00,18,15.90
2017,05,26,00,19,16.00
2017,05,26,00,20,16.00
2017,05,26,00,21,16.10
2017,05,26,00,22,16.10
2017,05,26,00,23,16.20
2017,05,26,00,24,16.20
2017,05,26,00,25,16.20
2017,05,26,00,26,16.20
2017,05,26,00,27,16.30
2017,05,26,00,28,16.30
2017,05,26,00,29,16.30
2017,05,26,00,30,16.30
2017,05,26,00,31,16.30
2017,05,26,00,32,16.40
2017,05,26,00,33,16.40
2017,05,26,00,34,16.40
2017,05,26,00,35,16.50
2017,05,26,00,36,16.50
2017,05,26,00,37,16.60
2017,05,26,00,38,16.60
2017,05,26,00,39,16.60
2017,05,26,00,40,16.60
2017,05,26,00,41,16.70
2017,05,26,00,42,16.70
2017,05,26,00,43,16.70
2017,05,26,00,44,16.70
2017,05,26,00,45,16.70
2017,05,26,00,46,16.70
2017,05,26,00,47,16.70
2017,05,26,00,48,16.70
2017,05,26,00,49,16.70
2017,05,26,00,50,16.70
2017,05,26,00,51,16.70
2017,05,26,00,52,16.70
2017,05,26,00,53,16.70
2017,05,26,00,54,16.70
2017,05,26,00,55,16.70
2017,05,26,00,56,16.70
2017,05,26,00,57,16.70
2017,05,26,00,58,16.70
2017,05,26,00,59,16.80
2017,05,26,01,00,16.80
2017,05,26,01,01,16.80
2017,05,26,01,02,16.80
2017,05,26,01,03,16.70
2017,05,26,01,04,16.70
2017,05,26,01,05,16.70
2017,05,26,01,06,16.70
2017,05,26,01,07,16.70
2017,05,26,01,08,16.70
2017,05,26,01,09,16.70
2017,05,26,01,10,16.70
2017,05,26,01,11,16.70
2017,05,26,01,12,16.70
2017,05,26,01,13,16.60
2017,05,26,01,14,16.60
2017,05,26,01,15,16.60
2017,05,26,01,16,16.50
2017,05,26,01,17,16.50
2017,05,26,01,18,16.40
2017,05,26,01,19,16.40
2017,05,26,01,20,16.40
2017,05,26,01,21,16.30
2017,05,26,01,22,16.30
2017,05,26,01,23,16.30
2017,05,26,01,24,16.20
2017,05,26,01,25,16.20
2017,05,26,01,26,16.20
2017,05,26,01,27,16.10
2017,05,26,01,28,16.10
2017,05,26,01,29,16.10
2017,05,26,01,30,16.10
2017,05,26,01,31,16.00
2017,05,26,01,32,16.00
2017,05,26,01,33,16.00
2017,05,26,01,34,15.90
2017,05,26,01,35,15.90
2017,05,26,01,36,15.90
2017,05,26,01,37,15.90
2017,05,26,01,38,15.90
2017,05,26,01,39,15.90
2017,05,26,01,40,15.90
2017,05,26,01,41,15.90
2017,05,26,01,42,15.90
2017,05,26,01,43,15.90
2017,05,26,01,44,15.90
2017,05,26,01,45,15.90
2017,05,26,01,46,15.90
2017,05,26,01,47,15.90
2017,05,26,01,48,15.90
2017,05,26,01,49,15.90
2017,05,26,01,50,15.80
2017,05,26,01,51,15.80
2017,05,26,01,52,15.80
2017,05,26,01,53,15.80
2017,05,26,01,54,15.70
2017,05,26,01,55,15.70
2017,05,26,01,56,15.70
2017,05,26,01,57,15.70
2017,05,26,01,58,15.70
2017,05,26,01,59,15.70
2017,05,26,02,00,15.60
2017,05,26,02,01,15.60
2017,05,26,02,02,15.60
2017,05,26,02,03,15.70
2017,05,26,02,04,15.70
2017,05,26,02,05,15.70
2017,05,26,02,06,15.70
2017,05,26,02,07,15.70
2017,05,26,02,08,15.70
2017,05,26,02,09,15.70
2017,05,26,02,10,15.70
2017,05,26,02,11,15.70
2017,05,26,02,12,15.70
2017,05,26,02,13,15.70
2017,05,26,02,14,15.70
2017,05,26,02,15,15.70
2017,05,26,02,16,15.70
2017,05,26,02,17,15.70
2017,05,26,02,18,15.70
2017,05,26,02,19,15.70
2017,05,26,02,20,15.70
2017,05,26,02,21,15.70
2017,05,26,02,22,15.70
2017,05,26,02,23,15.70
2017,05,26,02,24,15.80
2017,05,26,02,25,15.80
2017,05,26,02,26,15.80
2017,05,26,02,27,15.80
2017,05,26,02,28,15.80
2017,05,26,02,29,15.80
2017,05,26,02,30,15.90
2017,05,26,02,31,15.90
2017,05,26,02,32,15.90
2017,05,26,02,33,15.90
2017,05,26,02,34,15.90
2017,05,26,02,35,15.90
2017,05,26,02,36,15.90
2017,05,26,02,37,15.80
2017,05,26,02,38,15.80
2017,05,26,02,39,15.80
2017,05,26,02,40,15.80
2017,05,26,02,41,15.80
2017,05,26,02,42,15.80
2017,05,26,02,43,15.80
2017,05,26,02,44,15.80
2017,05,26,02,45,15.80
2017,05,26,02,46,15.70
2017,05,26,02,47,15.70
2017,05,26,02,48,15.60
2017,05,26,02,49,15.50
2017,05,26,02,50,15.50
2017,05,26,02,51,15.40
2017,05,26,02,52,15.40
2017,05,26,02,53,15.30
2017,05,26,02,54,15.30
2017,05,26,02,55,15.20
2017,05,26,02,56,15.10
2017,05,26,02,57,15.10
2017,05,26,02,58,15.00
2017,05,26,02,59,15.00
2017,05,26,03,00,14.90
2017,05,26,03,01,14.90
2017,05,26,03,02,14.80
2017,05,26,03,03,14.80
2017,05,26,03,04,14.70
2017,05,26,03,05,14.70
2017,05,26,03,06,14.70
2017,05,26,03,07,14.70
2017,05,26,03,08,14.70
2017,05,26,03,09,14.60
2017,05,26,03,10,14.60
2017,05,26,03,11,14.60
2017,05,26,03,12,14.60
2017,05,26,03,13,14.60
2017,05,26,03,14,14.50
2017,05,26,03,15,14.50
2017,05,26,03,16,14.50
2017,05,26,03,17,14.40
2017,05,26,03,18,14.40
2017,05,26,03,19,14.40
2017,05,26,03,20,14.40
2017,05,26,03,21,14.30
2017,05,26,03,22,14.30
2017,05,26,03,23,14.30
2017,05,26,03,24,14.20
2017,05,26,03,25,14.20
2017,05,26,03,26,14.20
2017,05,26,03,27,14.20
2017,05,26,03,28,14.20
2017,05,26,03,29,14.10
2017,05,26,03,30,14.10
2017,05,26,03,31,14.10
2017,05,26,03,32,14.10
2017,05,26,03,33,14.10
2017,05,26,03,34,14.10
2017,05,26,03,35,14.10
2017,05,26,03,36,14.10
2017,05,26,03,37,14.10
2017,05,26,03,38,14.10
2017,05,26,03,39,14.10
2017,05,26,03,40,14.10
2017,05,26,03,41,14.10
2017,05,26,03,42,14.10
2017,05,26,03,43,14.10
2017,05,26,03,44,14.10
2017,05,26,03,45,14.10
2017,05,26,03,46,14.10
2017,05,26,03,47,14.10
2017,05,26,03,48,14.10
2017,05,26,03,49,14.10
2017,05,26,03,50,14.10
2017,05,26,03,51,14.10
2017,05,26,03,52,14.10
2017,05,26,03,53,14.10
2017,05,26,03,54,14.00
2017,05,26,03,55,14.00
2017,05,26,03,56,14.00
2017,05,26,03,57,14.00
2017,05,26,03,58,14.00
2017,05,26,03,59,14.10
2017,05,26,04,00,14.10
2017,05,26,04,01,14.10
2017,05,26,04,02,14.10
2017,05,26,04,03,14.10
2017,05,26,04,04,14.20
2017,05,26,04,05,14.20
2017,05,26,04,06,14.30
2017,05,26,04,07,14.30
2017,05,26,04,08,14.40
2017,05,26,04,09,14.40
2017,05,26,04,10,14.40
2017,05,26,04,11,14.50
2017,05,26,04,12,14.50
2017,05,26,04,13,14.60
2017,05,26,04,14,14.60
2017,05,26,04,15,14.60
2017,05,26,04,16,14.70
2017,05,26,04,17,14.70
2017,05,26,04,18,14.70
2017,05,26,04,19,14.70
2017,05,26,04,20,14.70
2017,05,26,04,21,14.70
2017,05,26,04,22,14.70
2017,05,26,04,23,14.70
2017,05,26,04,24,14.70
2017,05,26,04,25,14.70
2017,05,26,04,26,14.70
2017,05,26,04,27,14.80
2017,05,26,04,28,14.80
2017,05,26,04,29,14.70
2017,05,26,04,30,14.70
2017,05,26,04,31,14.70
2017,05,26,04,32,14.70
2017,05,26,04,33,14.60
2017,05,26,04,34,14.60
2017,05,26,04,35,14.60
2017,05,26,04,36,14.60
2017,05,26,04,37,14.50
2017,05,26,04,38,14.50
2017,05,26,04,39,14.50
2017,05,26,04,40,14.50
2017,05,26,04,41,14.50
2017,05,26,04,42,14.50
2017,05,26,04,43,14.50
2017,05,26,04,44,14.40
2017,05,26,04,45,14.40
2017,05,26,04,46,14.40
2017,05,26,04,47,14.40
2017,05,26,04,48,14.40
2017,05,26,04,49,14.40
2017,05,26,04,50,14.40
2017,05,26,04,51,14.30
2017,05,26,04,52,14.30
2017,05,26,04,53,14.30
2017,05,26,04,54,14.30
2017,05,26,04,55,14.30
2017,05,26,04,56,14.30
2017,05,26,04,57,14.30
2017,05,26,04,58,14.30
2017,05,26,04,59,14.20
2017,05,26,05,00,14.20
2017,05,26,05,01,14.20
2017,05,26,05,02,14.20
2017,05,26,05,03,14.20
2017,05,26,05,04,14.10
2017,05,26,05,05,14.10
2017,05,26,05,06,14.10
2017,05,26,05,07,14.00
2017,05,26,05,08,14.00
2017,05,26,05,09,14.00
2017,05,26,05,10,14.00
2017,05,26,05,11,14.00
2017,05,26,05,12,14.00
2017,05,26,05,13,14.00
2017,05,26,05,14,14.00
2017,05,26,05,15,13.90
2017,05,26,05,16,13.90
2017,05,26,05,17,13.90
2017,05,26,05,18,13.90
2017,05,26,05,19,13.90
2017,05,26,05,20,13.90
2017,05,26,05,21,13.90
2017,05,26,05,22,14.00
2017,05,26,05,23,14.00
2017,05,26,05,24,14.00
2017,05,26,05,25,14.10
2017,05,26,05,26,14.00
2017,05,26,05,27,14.00
2017,05,26,05,28,14.00
2017,05,26,05,29,14.00
2017,05,26,05,30,14.00
2017,05,26,05,31,13.90
2017,05,26,05,32,13.90
2017,05,26,05,33,13.90
2017,05,26,05,34,13.90
2017,05,26,05,35,13.90
2017,05,26,05,36,13.80
2017,05,26,05,37,13.80
2017,05,26,05,38,13.80
2017,05,26,05,39,13.70
2017,05,26,05,40,13.70
2017,05,26,05,41,13.70
2017,05,26,05,42,13.70
2017,05,26,05,43,13.70
2017,05,26,05,44,13.60
2017,05,26,05,45,13.60
2017,05,26,05,46,13.60
2017,05,26,05,47,13.60
2017,05,26,05,48,13.60
2017,05,26,05,49,13.50
2017,05,26,05,50,13.50
2017,05,26,05,51,13.50
2017,05,26,05,52,13.40
2017,05,26,05,53,13.40
2017,05,26,05,54,13.40
2017,05,26,05,55,13.40
2017,05,26,05,56,13.40
2017,05,26,05,57,13.40
2017,05,26,05,58,13.40
2017,05,26,05,59,13.40
2017,05,26,06,00,13.40
2017,05,26,06,01,13.40
2017,05,26,06,02,13.40
2017,05,26,06,03,13.40
2017,05,26,06,04,13.40
2017,05,26,06,05,13.40
2017,05,26,06,06,13.40
2017,05,26,06,07,13.40
2017,05,26,06,08,13.40
2017,05,26,06,09,13.40
2017,05,26,06,10,13.40
2017,05,26,06,11,13.40
2017,05,26,06,12,13.40
2017,05,26,06,13,13.40
2017,05,26,06,14,13.40
2017,05,26,06,15,13.40
2017,05,26,06,16,13.40
2017,05,26,06,17,13.40
2017,05,26,06,18,13.30
2017,05,26,06,19,13.30
2017,05,26,06,20,13.30
2017,05,26,06,21,13.30
2017,05,26,06,22,13.20
2017,05,26,06,23,13.20
2017,05,26,06,24,13.20
2017,05,26,06,25,13.20
2017,05,26,06,26,13.20
2017,05,26,06,27,13.20
2017,05,26,06,28,13.10
2017,05,26,06,29,13.10
2017,05,26,06,30,13.10
2017,05,26,06,31,13.10
2017,05,26,06,32,13.10
2017,05,26,06,33,13.10
2017,05,26,06,34,13.10
2017,05,26,06,35,13.10
2017,05,26,06,36,13.10
2017,05,26,06,37,13.10
2017,05,26,06,38,13.20
2017,05,26,06,39,13.20
2017,05,26,06,40,13.20
2017,05,26,06,41,13.30
2017,05,26,06,42,13.30
2017,05,26,06,43,13.30
2017,05,26,06,44,13.30
2017,05,26,06,45,13.30
2017,05,26,06,46,13.30
2017,05,26,06,47,13.40
2017,05,26,06,48,13.40
2017,05,26,06,49,13.40
2017,05,26,06,50,13.40
2017,05,26,06,51,13.40
2017,05,26,06,52,13.40
2017,05,26,06,53,13.40
2017,05,26,06,54,13.40
2017,05,26,06,55,13.40
2017,05,26,06,56,13.40
2017,05,26,06,57,13.40
2017,05,26,06,58,13.40
2017,05,26,06,59,13.40
2017,05,26,07,00,13.40
2017,05,26,07,01,13.40
2017,05,26,07,02,13.50
2017,05,26,07,03,13.50
2017,05,26,07,04,13.50
2017,05,26,07,05,13.50
2017,05,26,07,06,13.50
2017,05,26,07,07,13.50
2017,05,26,07,08,13.50
2017,05,26,07,09,13.50
2017,05,26,07,10,13.50
2017,05,26,07,11,13.50
2017,05,26,07,12,13.50
2017,05,26,07,13,13.60
2017,05,26,07,14,13.60
2017,05,26,07,15,13.60
2017,05,26,07,16,13.60
2017,05,26,07,17,13.70
2017,05,26,07,18,13.70
2017,05,26,07,19,13.80
2017,05,26,07,20,13.90
2017,05,26,07,21,13.90
2017,05,26,07,22,14.00
2017,05,26,07,23,14.10
2017,05,26,07,24,14.10
2017,05,26,07,25,14.10
2017,05,26,07,26,14.20
2017,05,26,07,27,14.20
2017,05,26,07,28,14.20
2017,05,26,07,29,14.20
2017,05,26,07,30,14.20
2017,05,26,07,31,14.20
2017,05,26,07,32,14.20
2017,05,26,07,33,14.20
2017,05,26,07,34,14.30
2017,05,26,07,35,14.30
2017,05,26,07,36,14.30
2017,05,26,07,37,14.30
2017,05,26,07,38,14.30
2017,05,26,07,39,14.30
2017,05,26,07,40,14.30
2017,05,26,07,41,14.40
2017,05,26,07,42,14.40
2017,05,26,07,43,14.40
2017,05,26,07,44,14.40
2017,05,26,07,45,14.40
2017,05,26,07,46,14.40
2017,05,26,07,47,14.40
2017,05,26,07,48,14.40
2017,05,26,07,49,14.40
2017,05,26,07,50,14.40
2017,05,26,07,51,14.50
2017,05,26,07,52,14.50
2017,05,26,07,53,14.50
2017,05,26,07,54,14.50
2017,05,26,07,55,14.50
2017,05,26,07,56,14.60
2017,05,26,07,57,14.60
2017,05,26,07,58,14.60
2017,05,26,07,59,14.70
2017,05,26,08,00,14.70
2017,05,26,08,01,14.70
2017,05,26,08,02,14.70
2017,05,26,08,03,14.70
2017,05,26,08,04,14.80
2017,05,26,08,05,14.80
2017,05,26,08,06,14.80
2017,05,26,08,07,14.90
2017,05,26,08,08,14.90
2017,05,26,08,09,14.90
2017,05,26,08,10,14.90
2017,05,26,08,11,14.90
2017,05,26,08,12,15.00
2017,05,26,08,13,15.00
2017,05,26,08,14,15.10
2017,05,26,08,15,15.10
2017,05,26,08,16,15.10
2017,05,26,08,17,15.20
2017,05,26,08,18,15.20
2017,05,26,08,19,15.30
2017,05,26,08,20,15.30
2017,05,26,08,21,15.30
2017,05,26,08,22,15.40
2017,05,26,08,23,15.40
2017,05,26,08,24,15.50
2017,05,26,08,25,15.60
2017,05,26,08,26,15.60
2017,05,26,08,27,15.60
2017,05,26,08,28,15.70
2017,05,26,08,29,15.70
2017,05,26,08,30,15.80
2017,05,26,08,31,15.80
2017,05,26,08,32,15.90
2017,05,26,08,33,15.90
2017,05,26,08,34,16.00
2017,05,26,08,35,16.00
2017,05,26,08,36,16.00
2017,05,26,08,37,16.10
2017,05,26,08,38,16.10
2017,05,26,08,39,16.10
2017,05,26,08,40,16.10
2017,05,26,08,41,16.10
2017,05,26,08,42,16.10
2017,05,26,08,43,16.10
2017,05,26,08,44,16.10
2017,05,26,08,45,16.10
2017,05,26,08,46,16.20
2017,05,26,08,47,16.20
2017,05,26,08,48,16.20
2017,05,26,08,49,16.20
2017,05,26,08,50,16.20
2017,05,26,08,51,16.20
2017,05,26,08,52,16.30
2017,05,26,08,53,16.30
2017,05,26,08,54,16.30
2017,05,26,08,55,16.30
2017,05,26,08,56,16.40
2017,05,26,08,57,16.40
2017,05,26,08,58,16.50
2017,05,26,08,59,16.50
2017,05,26,09,00,16.60
2017,05,26,09,01,16.70
2017,05,26,09,02,16.70
2017,05,26,09,03,16.70
2017,05,26,09,04,16.80
2017,05,26,09,05,16.80
2017,05,26,09,06,16.80
2017,05,26,09,07,16.90
2017,05,26,09,08,16.90
2017,05,26,09,09,17.00
2017,05,26,09,10,17.10
2017,05,26,09,11,17.10
2017,05,26,09,12,17.10
2017,05,26,09,13,17.10
2017,05,26,09,14,17.20
2017,05,26,09,15,17.20
2017,05,26,09,16,17.20
2017,05,26,09,17,17.30
2017,05,26,09,18,17.30
2017,05,26,09,19,17.30
2017,05,26,09,20,17.40
2017,05,26,09,21,17.40
2017,05,26,09,22,17.50
2017,05,26,09,23,17.60
2017,05,26,09,24,17.60
2017,05,26,09,25,17.70
2017,05,26,09,26,17.80
2017,05,26,09,27,17.80
2017,05,26,09,28,17.90
2017,05,26,09,29,18.00
2017,05,26,09,30,18.00
2017,05,26,09,31,18.10
2017,05,26,09,32,18.10
2017,05,26,09,33,18.20
2017,05,26,09,34,18.20
2017,05,26,09,35,18.20
2017,05,26,09,36,18.20
2017,05,26,09,37,18.20
2017,05,26,09,38,18.20
2017,05,26,09,39,18.30
2017,05,26,09,40,18.30
2017,05,26,09,41,18.20
2017,05,26,09,42,18.20
2017,05,26,09,43,18.20
2017,05,26,09,44,18.20
2017,05,26,09,45,18.20
2017,05,26,09,46,18.20
2017,05,26,09,47,18.30
2017,05,26,09,48,18.30
2017,05,26,09,49,18.30
2017,05,26,09,50,18.30
2017,05,26,09,51,18.30
2017,05,26,09,52,18.30
2017,05,26,09,53,18.30
2017,05,26,09,54,18.40
2017,05,26,09,55,18.40
2017,05,26,09,56,18.40
2017,05,26,09,57,18.50
2017,05,26,09,58,18.50
2017,05,26,09,59,18.60
2017,05,26,10,00,18.60
2017,05,26,10,01,18.60
2017,05,26,10,02,18.60
2017,05,26,10,03,18.60
2017,05,26,10,04,18.60
2017,05,26,10,05,18.60
2017,05,26,10,06,18.60
2017,05,26,10,07,18.60
2017,05,26,10,08,18.60
2017,05,26,10,09,18.60
2017,05,26,10,10,18.60
2017,05,26,10,11,18.60
2017,05,26,10,12,18.60
2017,05,26,10,13,18.60
2017,05,26,10,14,18.70
2017,05,26,10,15,18.70
2017,05,26,10,16,18.80
2017,05,26,10,17,18.80
2017,05,26,10,18,18.80
2017,05,26,10,19,18.80
2017,05,26,10,20,18.90
2017,05,26,10,21,19.00
2017,05,26,10,22,19.00
2017,05,26,10,23,18.90
2017,05,26,10,24,18.90
2017,05,26,10,25,18.90
2017,05,26,10,26,19.00
2017,05,26,10,27,19.00
2017,05,26,10,28,19.10
2017,05,26,10,29,19.10
2017,05,26,10,30,19.10
2017,05,26,10,31,19.10
2017,05,26,10,32,19.10
2017,05,26,10,33,19.10
2017,05,26,10,34,19.10
2017,05,26,10,35,19.20
2017,05,26,10,36,19.20
2017,05,26,10,37,19.20
2017,05,26,10,38,19.20
2017,05,26,10,39,19.30
2017,05,26,10,40,19.30
2017,05,26,10,41,19.30
2017,05,26,10,42,19.30
2017,05,26,10,43,19.30
2017,05,26,10,44,19.30
2017,05,26,10,45,19.30
2017,05,26,10,46,19.40
2017,05,26,10,47,19.50
2017,05,26,10,48,19.50
2017,05,26,10,49,19.60
2017,05,26,10,50,19.60
2017,05,26,10,51,19.60
2017,05,26,10,52,19.60
2017,05,26,10,53,19.60
2017,05,26,10,54,19.60
2017,05,26,10,55,19.60
2017,05,26,10,56,19.60
2017,05,26,10,57,19.60
2017,05,26,10,58,19.60
2017,05,26,10,59,19.60
2017,05,26,11,00,19.50
2017,05,26,11,01,19.50
2017,05,26,11,02,19.50
2017,05,26,11,03,19.60
2017,05,26,11,04,19.60
2017,05,26,11,05,19.60
2017,05,26,11,06,19.70
2017,05,26,11,07,19.70
2017,05,26,11,08,19.80
2017,05,26,11,09,19.80
2017,05,26,11,10,19.80
2017,05,26,11,11,19.90
2017,05,26,11,12,19.90
2017,05,26,11,13,19.90
2017,05,26,11,14,19.90
2017,05,26,11,15,20.00
2017,05,26,11,16,20.00
2017,05,26,11,17,20.10
2017,05,26,11,18,20.10
2017,05,26,11,19,20.10
2017,05,26,11,20,20.10
2017,05,26,11,21,20.10
2017,05,26,11,22,20.10
2017,05,26,11,23,20.10
2017,05,26,11,24,20.10
2017,05,26,11,25,20.10
2017,05,26,11,26,20.10
2017,05,26,11,27,20.10
2017,05,26,11,28,20.20
2017,05,26,11,29,20.20
2017,05,26,11,30,20.20
2017,05,26,11,31,20.30
2017,05,26,11,32,20.30
2017,05,26,11,33,20.30
2017,05,26,11,34,20.30
2017,05,26,11,35,20.30
2017,05,26,11,36,20.30
2017,05,26,11,37,20.40
2017,05,26,11,38,20.40
2017,05,26,11,39,20.40
2017,05,26,11,40,20.40
2017,05,26,11,41,20.40
2017,05,26,11,42,20.50
2017,05,26,11,43,20.50
2017,05,26,11,44,20.50
2017,05,26,11,45,20.50
2017,05,26,11,46,20.50
2017,05,26,11,47,20.50
2017,05,26,11,48,20.50
2017,05,26,11,49,20.50
2017,05,26,11,50,20.60
2017,05,26,11,51,20.60
2017,05,26,11,52,20.60
2017,05,26,11,53,20.60
2017,05,26,11,54,20.60
2017,05,26,11,55,20.60
2017,05,26,11,56,20.60
2017,05,26,11,57,20.60
2017,05,26,11,58,20.60
2017,05,26,11,59,20.70
2017,05,26,12,00,20.70
2017,05,26,12,01,20.70
2017,05,26,12,02,20.70
2017,05,26,12,03,20.70
2017,05,26,12,04,20.70
2017,05,26,12,05,20.70
2017,05,26,12,06,20.70
2017,05,26,12,07,20.70
2017,05,26,12,08,20.70
2017,05,26,12,09,20.80
2017,05,26,12,10,20.80
2017,05,26,12,11,20.80
2017,05,26,12,12,20.80
2017,05,26,12,13,20.80
2017,05,26,12,14,20.80
2017,05,26,12,15,20.90
2017,05,26,12,16,20.90
2017,05,26,12,17,20.90
2017,05,26,12,18,20.80
2017,05,26,12,19,20.80
2017,05,26,12,20,20.70
2017,05,26,12,21,20.70
2017,05,26,12,22,20.70
2017,05,26,12,23,20.70
2017,05,26,12,24,20.70
2017,05,26,12,25,20.70
2017,05,26,12,26,20.60
2017,05,26,12,27,20.60
2017,05,26,12,28,20.70
2017,05,26,12,29,20.70
2017,05,26,12,30,20.80
2017,05,26,12,31,20.80
2017,05,26,12,32,20.90
2017,05,26,12,33,21.00
2017,05,26,12,34,21.00
2017,05,26,12,35,21.00
2017,05,26,12,36,21.00
2017,05,26,12,37,21.00
2017,05,26,12,38,21.00
2017,05,26,12,39,20.90
2017,05,26,12,40,20.90
2017,05,26,12,41,20.80
2017,05,26,12,42,20.80
2017,05,26,12,43,20.80
2017,05,26,12,44,20.90
2017,05,26,12,45,20.90
2017,05,26,12,46,20.90
2017,05,26,12,47,21.00
2017,05,26,12,48,21.00
2017,05,26,12,49,21.00
2017,05,26,12,50,21.10
2017,05,26,12,51,21.20
2017,05,26,12,52,21.30
2017,05,26,12,53,21.30
2017,05,26,12,54,21.40
2017,05,26,12,55,21.40
2017,05,26,12,56,21.40
2017,05,26,12,57,21.30
2017,05,26,12,58,21.30
2017,05,26,12,59,21.30
2017,05,26,13,00,21.30
2017,05,26,13,01,21.30
2017,05,26,13,02,21.30
2017,05,26,13,03,21.40
2017,05,26,13,04,21.40
2017,05,26,13,05,21.40
2017,05,26,13,06,21.50
2017,05,26,13,07,21.60
2017,05,26,13,08,21.60
2017,05,26,13,09,21.60
2017,05,26,13,10,21.60
2017,05,26,13,11,21.50
2017,05,26,13,12,21.50
2017,05,26,13,13,21.40
2017,05,26,13,14,21.40
2017,05,26,13,15,21.40
2017,05,26,13,16,21.50
2017,05,26,13,17,21.60
2017,05,26,13,18,21.60
2017,05,26,13,19,21.70
2017,05,26,13,20,21.80
2017,05,26,13,21,21.80
2017,05,26,13,22,21.80
2017,05,26,13,23,21.80
2017,05,26,13,24,21.80
2017,05,26,13,25,21.80
2017,05,26,13,26,21.80
2017,05,26,13,27,21.90
2017,05,26,13,28,21.90
2017,05,26,13,29,22.00
2017,05,26,13,30,22.00
2017,05,26,13,31,22.00
2017,05,26,13,32,22.00
2017,05,26,13,33,21.90
2017,05,26,13,34,21.80
2017,05,26,13,35,21.80
2017,05,26,13,36,21.80
2017,05,26,13,37,21.90
2017,05,26,13,38,21.90
2017,05,26,13,39,22.00
2017,05,26,13,40,22.00
2017,05,26,13,41,22.00
2017,05,26,13,42,22.10
2017,05,26,13,43,22.20
2017,05,26,13,44,22.20
2017,05,26,13,45,22.20
2017,05,26,13,46,22.30
2017,05,26,13,47,22.30
2017,05,26,13,48,22.30
2017,05,26,13,49,22.40
2017,05,26,13,50,22.50
2017,05,26,13,51,22.50
2017,05,26,13,52,22.60
2017,05,26,13,53,22.70
2017,05,26,13,54,22.70
2017,05,26,13,55,22.70
2017,05,26,13,56,22.70
2017,05,26,13,57,22.70
2017,05,26,13,58,22.60
2017,05,26,13,59,22.50
2017,05,26,14,00,22.40
2017,05,26,14,01,22.40
2017,05,26,14,02,22.30
2017,05,26,14,03,22.30
2017,05,26,14,04,22.30
2017,05,26,14,05,22.30
2017,05,26,14,06,22.30
2017,05,26,14,07,22.30
2017,05,26,14,08,22.40
2017,05,26,14,09,22.40
2017,05,26,14,10,22.40
2017,05,26,14,11,22.50
2017,05,26,14,12,22.60
2017,05,26,14,13,22.60
2017,05,26,14,14,22.60
2017,05,26,14,15,22.70
2017,05,26,14,16,22.60
2017,05,26,14,17,22.60
2017,05,26,14,18,22.60
2017,05,26,14,19,22.60
2017,05,26,14,20,22.60
2017,05,26,14,21,22.60
2017,05,26,14,22,22.60
2017,05,26,14,23,22.60
2017,05,26,14,24,22.60
2017,05,26,14,25,22.70
2017,05,26,14,26,22.70
2017,05,26,14,27,22.70
2017,05,26,14,28,22.70
2017,05,26,14,29,22.70
2017,05,26,14,30,22.70
2017,05,26,14,31,22.80
2017,05,26,14,32,22.80
2017,05,26,14,33,22.80
2017,05,26,14,34,22.80
2017,05,26,14,35,22.80
2017,05,26,14,36,22.80
2017,05,26,14,37,22.80
2017,05,26,14,38,22.80
2017,05,26,14,39,22.90
2017,05,26,14,40,23.00
2017,05,26,14,41,23.00
2017,05,26,14,42,23.00
2017,05,26,14,43,23.00
2017,05,26,14,44,23.10
2017,05,26,14,45,23.00
2017,05,26,14,46,23.00
2017,05,26,14,47,23.00
2017,05,26,14,48,23.00
2017,05,26,14,49,23.00
2017,05,26,14,50,23.10
2017,05,26,14,51,23.20
2017,05,26,14,52,23.30
2017,05,26,14,53,23.30
2017,05,26,14,54,23.30
2017,05,26,14,55,23.40
2017,05,26,14,56,23.40
2017,05,26,14,57,23.50
2017,05,26,14,58,23.50
2017,05,26,14,59,23.60
2017,05,26,15,00,23.60
2017,05,26,15,01,23.60
2017,05,26,15,02,23.60
2017,05,26,15,03,23.60
2017,05,26,15,04,23.60
2017,05,26,15,05,23.60
2017,05,26,15,06,23.60
2017,05,26,15,07,23.60
2017,05,26,15,08,23.60
2017,05,26,15,09,23.70
2017,05,26,15,10,23.70
2017,05,26,15,11,23.80
2017,05,26,15,12,23.80
2017,05,26,15,13,23.80
2017,05,26,15,14,23.80
2017,05,26,15,15,23.90
2017,05,26,15,16,23.90
2017,05,26,15,17,24.00
2017,05,26,15,18,24.00
2017,05,26,15,19,24.10
2017,05,26,15,20,24.10
2017,05,26,15,21,24.10
2017,05,26,15,22,24.00
2017,05,26,15,23,24.00
2017,05,26,15,24,23.80
2017,05,26,15,25,23.70
2017,05,26,15,26,23.70
2017,05,26,15,27,23.60
2017,05,26,15,28,23.60
2017,05,26,15,29,23.60
2017,05,26,15,30,23.60
2017,05,26,15,31,23.60
2017,05,26,15,32,23.70
2017,05,26,15,33,23.80
2017,05,26,15,34,23.80
2017,05,26,15,35,23.80
2017,05,26,15,36,23.80
2017,05,26,15,37,23.80
2017,05,26,15,38,23.80
2017,05,26,15,39,23.80
2017,05,26,15,40,23.80
2017,05,26,15,41,23.80
2017,05,26,15,42,23.80
2017,05,26,15,43,23.80
2017,05,26,15,44,23.80
2017,05,26,15,45,23.90
2017,05,26,15,46,23.90
2017,05,26,15,47,24.00
2017,05,26,15,48,24.10
2017,05,26,15,49,24.20
2017,05,26,15,50,24.20
2017,05,26,15,51,24.30
2017,05,26,15,52,24.30
2017,05,26,15,53,24.30
2017,05,26,15,54,24.30
2017,05,26,15,55,24.40
2017,05,26,15,56,24.40
2017,05,26,15,57,24.40
2017,05,26,15,58,24.40
2017,05,26,15,59,24.40
2017,05,26,16,00,24.40
2017,05,26,16,01,24.40
2017,05,26,16,02,24.40
2017,05,26,16,03,24.40
2017,05,26,16,04,24.40
2017,05,26,16,05,24.40
2017,05,26,16,06,24.50
2017,05,26,16,07,24.40
2017,05,26,16,08,24.40
2017,05,26,16,09,24.40
2017,05,26,16,10,24.40
2017,05,26,16,11,24.40
2017,05,26,16,12,24.40
2017,05,26,16,13,24.40
2017,05,26,16,14,24.50
2017,05,26,16,15,24.50
2017,05,26,16,16,24.50
2017,05,26,16,17,24.50
2017,05,26,16,18,24.50
2017,05,26,16,19,24.50
2017,05,26,16,20,24.50
2017,05,26,16,21,24.50
2017,05,26,16,22,24.50
2017,05,26,16,23,24.60
2017,05,26,16,24,24.60
2017,05,26,16,25,24.70
2017,05,26,16,26,24.70
2017,05,26,16,27,24.70
2017,05,26,16,28,24.70
2017,05,26,16,29,24.60
2017,05,26,16,30,24.60
2017,05,26,16,31,24.60
2017,05,26,16,32,24.60
2017,05,26,16,33,24.60
2017,05,26,16,34,24.60
2017,05,26,16,35,24.60
2017,05,26,16,36,24.60
2017,05,26,16,37,24.60
2017,05,26,16,38,24.60
2017,05,26,16,39,24.60
2017,05,26,16,40,24.50
2017,05,26,16,41,24.40
2017,05,26,16,42,24.40
2017,05,26,16,43,24.40
2017,05,26,16,44,24.30
2017,05,26,16,45,24.30
2017,05,26,16,46,24.30
2017,05,26,16,47,24.20
2017,05,26,16,48,24.10
2017,05,26,16,49,24.00
2017,05,26,16,50,24.00
2017,05,26,16,51,23.90
2017,05,26,16,52,23.90
2017,05,26,16,53,23.80
2017,05,26,16,54,23.80
2017,05,26,16,55,23.70
2017,05,26,16,56,23.60
2017,05,26,16,57,23.60
2017,05,26,16,58,23.50
2017,05,26,16,59,23.50
2017,05,26,17,00,23.50
2017,05,26,17,01,23.40
2017,05,26,17,02,23.30
2017,05,26,17,03,23.30
2017,05,26,17,04,23.30
2017,05,26,17,05,23.30
2017,05,26,17,06,23.30
2017,05,26,17,07,23.30
2017,05,26,17,08,23.30
2017,05,26,17,09,23.30
2017,05,26,17,10,23.30
2017,05,26,17,11,23.30
2017,05,26,17,12,23.30
2017,05,26,17,13,23.30
2017,05,26,17,14,23.30
2017,05,26,17,15,23.30
2017,05,26,17,16,23.30
2017,05,26,17,17,23.30
2017,05,26,17,18,23.30
2017,05,26,17,19,23.30